INMARSAT 5-F2 (40384 NORAD) Tracking and Keplerian Element Data

This shows tracking and keplerian element data for the satellite.

Feedback or suggestion? Click here.




ElementValue
Catalog40384
NameINMARSAT 5-F2
Epoch Orbit2430
Epoch Day262.07271632
Epoch Year2021
RAAN166.2773
Inclination0.027
Eccentricity1.16E-05
Argument of Perigee60.3735
Mean Anonmoly102.7391
Mean Motion1.00268471
Decay Rate-3.09E-06
L11 40384U 15005A 21262.07271632 -.00000309 00000-0 00000+0 0 9993
L22 40384 0.0270 166.2773 0000116 60.3735 102.7391 1.00268471 24305

Live tracking and technical data element details for INMARSAT 5-F2 (NORAD 40384). INMARSAT 5-F2 can be tracked NOW for your location showing map with azimuth and elevation plus other details from your city location.

Track the satellite on the map from your city or location and see movement details for azimuth, elevation, latitude, longitude, range, height, and movement on the map or in text.







IsCatalogInMostPopularTable: catalog: 40384, numindb: 550
Update: records affected: 1



GetName: 40384 INMARSAT 5-F2

Hit Count: updated at: Sun, 26 Sep 2021 00:44:07 GMT